Regional Weather Roundup
Issued by NWS

Home | Current Version | Previous Version | Graphics & Text | Print | Product List | Glossary On
Versions: 1 2 3 4 5 6 7 8 9 10 11 12 13 14 15 16 17 18 19 20 21 22 23 24 25 26 27 28 29 30 31 32 33 34 35 36 37 38 39 40 41 42 43 44 45 46 47 48 49 50
000
ASUS43 KLMK 041310
RWRKY
KENTUCKY REGIONAL WEATHER ROUNDUP
NATIONAL WEATHER SERVICE LOUISVILLE KY
800 AM EST WED MAR 04 2015

NOTE "FAIR" INDICATES FEW OR NO CLOUDS BELOW 12,000 FEET
WITH NO SIGNIFICANT WEATHER AND/OR OBSTRUCTIONS TO VISIBILITY.

KYZ001>023-026-027-061>063-070>075-041400-
WESTERN AND SOUTH CENTRAL KENTUCKY

CITY           SKY/WX    TMP DP  RH WIND       PRES   REMARKS
PADUCAH        RAIN      38  35  89 NE17      29.97R FOG     WCI  28
HENDERSON      CLOUDY    36  32  87 N8        30.00R WCI  29
OWENSBORO      RAIN      38  37  96 N9        29.97F FOG     WCI  31
HOPKINSVILLE   LGT RAIN  45  43  93 N9        29.92R
BOWLING GREEN  LGT RAIN  48  46  93 NW5       29.92R FOG
GLASGOW        RAIN      47  47 100 CALM      29.90F
$$

KYZ024-025-028>034-038-045-046-053-041400-
NORTH CENTRAL KENTUCKY

CITY           SKY/WX    TMP DP  RH WIND       PRES   REMARKS
LOUISVILLE/SDF LGT RAIN  41  39  93 N9        29.95S FOG
LOUISVILLE/LOU RAIN      40  38  93 N7        29.95R FOG
FORT KNOX      RAIN      41  40  96 NW6       29.94R FOG
$$

KYZ035>037-039>044-047>052-055>060-089>105-041400-
NORTHEAST KENTUCKY

CITY           SKY/WX    TMP DP  RH WIND       PRES   REMARKS
LEXINGTON      RAIN      41  41 100 N5        29.90F FOG
COVINGTON      FOG       36  34  92 NW7       29.95R VSB 1/2 WCI  30
FRANKFORT      LGT RAIN  40  39  97 NW7       29.92S FOG
$$

KYZ054-064>069-076>088-106>120-041400-
SOUTHEAST KENTUCKY

CITY           SKY/WX    TMP DP  RH WIND       PRES   REMARKS
JACKSON        LGT RAIN  48  47  96 CALM      29.94R FOG
LONDON         LGT RAIN  51  47  86 NE5       29.93R
SOMERSET       HVY RAIN  46  46 100 CALM      29.93S
MIDDLESBORO    RAIN      53  52  99 NE5       29.94R
MONTICELLO     CLOUDY    52  52 100 E3        29.95S FOG
$$



USA.gov is the U.S. government's official web portal to all federal, state and local government web resources and services.